Overview Statistics Trail Chart Weather Telemetry Raw packets
 

This is the latest recevied weather packets stored in our database for station/object K0QED. If no packets are shown the sender has not sent any weather packets the latest 10 day(s).

<< 104 105 106 107 108 109 110 >>
Time Temp. Humidity Pressure Rain* Wind** Luminosity Snow
1787840083 15° C 84% 1031.2 hPa 0 mm - 62 W/m² -
1787839777 14.44° C 84% 1031.4 hPa 0 mm - 69 W/m² -
1787839472 14.44° C 85% 1031.7 hPa 0 mm - 69 W/m² -
1787839177 13.89° C 85% 1031.6 hPa 0 mm - 64 W/m² -
1787838871 13.89° C 85% 1031.6 hPa 0 mm - 51 W/m² -
1787838565 13.89° C 85% 1031.9 hPa 0 mm - 42 W/m² -
1787838265 13.89° C 85% 1031.5 hPa 0 mm - 34 W/m² -
1787837963 13.33° C 86% 1031.2 hPa 0 mm - 30 W/m² -
1787837663 13.33° C 86% 1031.6 hPa 0 mm - 29 W/m² -
1787837358 13.33° C 86% 1031.4 hPa 0 mm - 26 W/m² -
1787837053 13.33° C 85% 1031.1 hPa 0 mm - 29 W/m² -
1787836752 13.33° C 85% 1031.2 hPa 0 mm - 27 W/m² -
1787836447 13.33° C 85% 1031.1 hPa 0 mm - 26 W/m² -
1787836143 13.33° C 85% 1031.1 hPa 0 mm - 24 W/m² -
1787835838 13.33° C 85% 1031.2 hPa 0 mm - 20 W/m² -
1787835537 13.33° C 84% 1031.2 hPa 0 mm - 15 W/m² -
1787835232 13.33° C 84% 1031.1 hPa 0 mm - 10 W/m² -
1787834927 13.33° C 84% 1031 hPa 0 mm - 9 W/m² -
1787834626 13.33° C 85% 1031 hPa 0 mm - 6 W/m² -
1787834322 13.33° C 85% 1030.9 hPa 0 mm - 3 W/m² -
1787834018 13.33° C 85% 1031.2 hPa 0 mm - 0 W/m² -
1787833713 13.33° C 86% 1031 hPa 0 mm - 0 W/m² -
1787833408 12.78° C 86% 1031.2 hPa 0 mm - 0 W/m² -
1787833104 12.78° C 86% 1031.2 hPa 0 mm - 0 W/m² -
1787832799 12.78° C 88% 1031.2 hPa 0 mm - 0 W/m² -

* Rain latest hour (hover to see other rain measurements)
** Current wind speed in m/s (hover to see current wind gust speed)